GW2364 Weather Reports


time (UTC)temp
C
wind
direction
speed
KPH
gust
KPH
rain 1hr
cm
rain 24hr
cm
rain mn
cm
humidity
%
barometer
mb
20260509221503 31 105 4.8 12.9 0.00 0.08 0.08 45 1006.1
20260509220005 31 55 4.8 12.9 0.00 0.08 0.08 48 1006.2
20260509214502 31 51 3.2 12.9 0.00 0.08 0.08 48 1006.2
20260509213003 31 141 3.2 11.3 0.00 0.08 0.08 51 1006.5
20260509211502 31 97 4.8 14.5 0.00 0.08 0.08 51 1006.6
20260509210004 31 65 3.2 12.9 0.00 0.08 0.08 54 1006.7
20260509204505 31 130 3.2 17.7 0.00 0.08 0.08 54 1006.8
20260509203002 30 74 4.8 16.1 0.00 0.08 0.08 54 1007.1
20260509201503 30 55 9.7 22.5 0.00 0.08 0.08 52 1007.3
20260509200005 32 58 9.7 17.7 0.00 0.08 0.08 55 1007.6
20260509194502 31 20 3.2 9.7 0.00 0.08 0.08 58 1007.6
20260509193006 32 323 1.6 8.0 0.00 0.08 0.08 56 1007.5
20260509191503 32 71 3.2 11.3 0.00 0.08 0.08 56 1007.7
20260509190009 31 286 1.6 9.7 0.00 0.08 0.08 62 1007.7
20260509184502 31 101 1.6 12.9 0.00 0.08 0.08 60 1008.1
20260509183003 31 257 8.0 17.7 0.00 0.08 0.08 61 1008.4
20260509181502 30 236 3.2 16.1 0.00 0.08 0.08 65 1008.6
20260509180005 30 305 1.6 11.3 0.00 0.08 0.08 65 1008.8
20260509174506 30 284 1.6 14.5 0.00 0.08 0.08 69 1008.9
20260509173004 30 249 3.2 11.3 0.00 0.08 0.08 69 1009.3
20260509171501 29 309 1.6 8.0 0.00 0.08 0.08 72 1009.4
20260509170005 28 241 1.6 8.0 0.00 0.08 0.08 76 1009.4
20260509164503 27 250 3.2 11.3 0.00 0.08 0.08 77 1009.4
20260509163002 27 267 1.6 8.0 0.00 0.08 0.08 79 1009.6
20260509161502 27 272 1.6 14.5 0.00 0.08 0.08 82 1009.5
20260509160005 26 236 4.8 12.9 0.00 0.08 0.08 84 1009.6
20260509154502 25 194 3.2 12.9 0.00 0.08 0.08 87 1009.7
20260509153003 24 217 3.2 11.3 0.00 0.08 0.08 91 1009.7